FENGYUN 1C DEB

Satellite information

Favourite Embed

Satellite Type and Status

DEBRISIN ORBIT

Key statistics

Satellite FENGYUN 1C DEB at a glance.

Uptime

9618

Days in orbit

Revolutions

≈ 14.5

Per day

Orbit

SSO

Sun Synchronous Orbit

Inclination

99.0

Latest

Satellite identification and parameters

Extended collection of information and parameters for FENGYUN 1C DEB.

Object identification

Identified? True

Debris? True

Object name: FENGYUN 1C DEB

International designator: 1999-025AVY

Object number (NORAD): 30838

Object ID (CCSDS): 30838

Country: PEOPLES REPUBLIC OF CHINA (PRC)

Current information (Y/N): Y

RCS size: SMALL

Orbital parameters

Period: 99.639 minutes

Inclination: 99.0406 deg

SMA: 7119.429 km

Apoapsis: 770.281 km

Periapsis: 712.307 km

RAAN: 157.6667 deg

Eccentricy: 0.00407147

Argument of periapsis: 86.6416 deg

Mean anomaly: 273.943 deg

Mean motion: 14.45223518 rev/day

Mean motion (dot): 0.00009298 rev/day2

B* drag term: 0.0026364196 1/REarth

Two-line elements (TLE)

Creation date: Sept. 7, 2025, 9:49 a.m.

Reference frame: TEME

Reference center: EARTH

Epoch: Sept. 7, 2025, 4:41 a.m. UTC

TLE line 0: 0 FENGYUN 1C DEB

TLE line 1: 1 30838U 99025AVY 25250.19551054 .00009298 00000-0 26364-2 0 9992

TLE line 2: 2 30838 99.0406 157.6667 0040715 86.6416 273.9430 14.45223518959183

Live tracking on map

Real-time ground track for satellite FENGYUN 1C DEB.

In-orbit conjunctions

A list of the most updated potential collisions computed for object FENGYUN 1C DEB.

Target Orbit TCA Probability of collision Miss distance Type
DELTA 1 DEB SSO 2025-08-16 12:03:16 0.0002079475 289.0 (m) DEBRIS
CZ-4B DEB SSO 2025-06-05 00:19:26 0.0004433212 18.0 (m) DEBRIS
NOAA 16 DEB SSO 2024-09-25 18:42:12 0.0002099051 212.0 (m) DEBRIS

Associated space launch

Chinese polar orbiting meteorological satellite

FENGYUN 1C DEB was lifted into orbit during the mission ‘Long March 4B | Feng Yun 1C’, on board a Long March 4B space rocket.

The launch took place on May 10, 1999, 1:33 a.m. from Launch Complex 7.

For more information about the launch, click the button.

Launch to space Long March 4B | Feng Yun 1C
Long March 4B | Feng Yun 1C

Agency: N/A

Status: Launch Successful

Launch date: May 10, 1999, 1:33 a.m. UTC

Rocket: Long March 4B

Launch pad: Launch Complex 7

Location: Taiyuan Satellite Launch Center, People's Republic of China

...

Latest news about this satellite

There are no fresh news available about this satellite. Check back as we update our databases every day.


Newsletter sign-up

Weekly statistics, charts and insights to help you stay on top of the space industry.